AKDT,Max TemperatureF,Mean TemperatureF,Min TemperatureF,Max Dew PointF,MeanDew PointF,Min DewpointF,Max Humidity, Mean Humidity, Min Humidity, Max Sea Level PressureIn, Mean Sea Level PressureIn, Min Sea Level PressureIn, Max VisibilityMiles, Mean VisibilityMiles, Min VisibilityMiles, Max Wind SpeedMPH, Mean Wind SpeedMPH, Max Gust SpeedMPH,PrecipitationIn, CloudCover, Events, WindDirDegrees
2012-9-1,60,55,51,52,50,46,100,89,64,30.02,30.00,29.99,10,7,2,21,10,26,0.39,7,Rain,141
2012-9-2,61,56,51,54,51,46,100,90,60,30.20,30.12,30.01,10,7,2,13,8,20,0.40,7,Rain,111
2012-9-3,55,54,53,55,54,53,100,98,90,30.27,30.23,30.19,10,7,3,13,7,,0.22,8,Rain,130
2012-9-4,62,56,51,56,53,49,100,95,67,30.30,30.25,30.22,10,6,2,15,10,20,0.46,7,Rain,129
2012-9-5,63,55,48,54,49,46,97,81,58,30.32,30.30,30.25,10,10,10,12,6,,0.00,4,,314
2012-9-6,64,59,54,54,49,43,94,73,46,30.33,30.28,30.25,10,10,10,14,6,18,0.00,4,,314
2012-9-7,66,58,50,49,46,40,86,70,38,30.34,30.27,30.16,10,10,10,12,7,,0.00,0,,325
2012-9-8,62,56,51,56,53,48,100,88,72,30.14,29.85,29.61,10,8,2,15,9,24,0.29,7,Rain,132
2012-9-9,55,52,48,55,49,45,100,89,72,29.75,29.61,29.55,10,8,2,22,9,32,0.93,8,Rain,138
2012-9-10,55,50,46,50,47,44,100,87,74,30.11,29.93,29.77,10,10,10,10,4,,0.18,7,Rain,144
2012-9-11,53,50,48,52,49,45,100,93,83,30.24,30.19,30.12,10,8,4,16,7,23,0.58,8,Rain,137
2012-9-12,55,53,51,55,53,51,100,99,93,30.19,30.15,30.10,10,5,2,24,18,34,1.74,8,Rain,132
2012-9-13,55,54,52,54,53,45,100,96,77,30.15,30.04,29.83,10,6,2,32,18,47,2.13,8,Rain,134
2012-9-14,57,52,46,50,47,44,97,87,64,30.31,30.23,30.09,10,10,9,10,5,,0.02,5,Rain,144
2012-9-15,60,53,46,49,46,44,100,85,57,30.41,30.38,30.32,10,10,10,14,6,,0.00,1,,318
2012-9-16,57,50,44,49,46,42,100,90,72,30.41,30.37,30.29,10,9,0,12,7,,0.02,2,Fog,320
2012-9-17,51,46,42,52,48,42,100,98,89,30.28,30.21,30.16,10,6,0,12,3,,0.33,7,Fog-Rain,138
2012-9-18,59,54,50,52,50,47,100,90,70,30.26,30.22,30.18,10,10,10,15,7,22,0.00,5,,326
2012-9-19,61,54,48,50,49,48,100,84,67,30.26,30.23,30.21,10,10,10,18,13,23,0.00,0,,325
2012-9-20,64,58,51,53,50,48,89,79,62,30.20,30.09,30.01,10,10,10,16,11,,0.00,0,,325
2012-9-21,61,54,48,54,51,48,100,93,77,30.12,30.08,30.04,10,9,4,12,7,,0.00,5,,140
2012-9-22,59,55,53,53,50,47,97,84,69,30.12,30.10,30.05,10,10,7,16,10,24,0.00,8,,144
2012-9-23,55,53,51,54,53,50,100,98,89,30.16,30.13,30.09,10,4,1,14,9,,0.74,8,Rain,141
2012-9-24,59,50,44,54,50,44,100,93,69,30.25,30.20,30.15,10,8,0,12,4,,0.02,5,Fog-Rain,337
2012-9-25,54,48,44,49,47,45,100,94,77,30.24,30.15,30.05,10,6,0,14,4,30,0.13,7,Fog-Rain,139
2012-9-26,57,52,48,54,49,48,100,95,80,30.06,29.96,29.68,10,4,2,22,14,36,1.69,8,Rain,142
2012-9-27,57,54,50,55,52,48,100,93,88,29.86,29.74,29.60,10,8,2,26,15,41,2.07,8,Rain,137
2012-9-28,53,50,48,51,49,48,100,94,88,29.99,29.92,29.85,10,10,5,14,9,20,0.39,8,Rain,139
2012-9-29,53,49,46,49,48,46,100,94,86,30.19,30.07,29.99,10,10,6,14,6,,0.30,7,Rain,152
2012-9-30,52,50,48,51,49,46,100,98,93,30.21,30.08,29.78,10,7,2,8,3,,0.21,8,Rain,156